DECAYED

STARLINK-5618, 55415 (Decayed)

Orbit data source: Space-Track

STARLINK-5618, 55415 was a payload satellite owned by SpaceX/Seattle (US) in LEO that was launched on Tue, 31 Jan 2023 UTC via an FALCON 9 launch vehicle from the Air Force Western Test Range (AFWTR). Payload-class satellites include a variety of spacecraft equipped with specific instruments for various scientific and technological missions. These include communications satellites like Starlink; space stations such as the ISS; scientific satellites like the Hubble; Earth observation satellites from companies like Planet Labs, Umbra, and HawkEye 360; GPS; miniature CubeSats for education and research; and military/defense satellites.

Not visible in the next 10 days
Identifier
55415, 2023-014AA
Orbit
Decayed
Country
Flag of USUS
Related business
Manufacturer
SpaceX/Seattle
Mission
Decayed Commercial Communications
Bus & Motor
STARLINK, Unknown motor
Mass
305 kg wet, ~290 kg dry
Launch date (UTC)
2023-01-31 (3 years ago)
Launch vehicle
FALCON 9
Launch site
Air Force Western Test Range (AFWTR)
Object type
Payload
Rocket body
Debris
Shape & HBR
Box + 1 Pan, 10.1 m
Radar Cross Section
13.562 m², Large (>1 m²)

Expand to show TLE details & history
Last TLE update: 1 year ago

TLE from 1 year ago
0 STARLINK-5618
1 55415U 23014AA  25075.02602373  .15767756  44710-5  25644-3 0  9991
2 55415  69.9751 250.3693 0009471 267.8066 233.9882 16.47630382117344
Epoch: 2025-03-16T00:37Z
TLE epoch observation values (Epoch: 2025-03-16T00:37:28.450Z)
Latitude
35.69875°
Longitude
-127.95443°
Altitude
153.559 km
Speed
7.816 km/s
True Right ascension
03h 41m 06s
True Declination
35° 31' 15"
Sunlit
Object was in daylight at epoch
Visualization orbit readout
Latitude
Unknown
Longitude
Unknown
Altitude
Unknown
Speed
Unknown
Apparent Right ascension
Unknown
Apparent Declination
Unknown
Sunlit
N/A
Visualization observer readout
Local Sidereal Time
21:24:57
Azimuth
Unknown
Elevation
Unknown
Doppler factor
Unknown
Orbital elements
Apogee altitude
149.576 km
Perigee altitude
137.223 km
Semi-major axis
6,521.536 km
Eccentricity
0.00095
Inclination
69.9751°
RAAN
250.3693°
Arg. of periapsis
267.8066°
True anomaly
233.90047°
Mean anomaly
233.9882°
Eccentric anomaly
233.94433°
Mean motion
4.12115 °/min
Orbital period
87.35 mins
BSTAR
0.00025644
Loading maneuver chart data...
Computing Atmospheric mass density...

Documentation

Showing up to 5 results
|